| time (UTC) | temp C | wind direction | speed KPH | gust KPH | rain 1hr cm | rain 24hr cm | rain mn cm | humidity % | barometer mb |
| 20260502223633 | 17 | 197 | 8.0 | 17.7 | 0.00 | 0.00 | 0.00 | 32 | |
| 20260502223131 | 17 | 181 | 14.5 | 17.7 | 0.00 | 0.00 | 0.00 | 34 | |
| 20260502222628 | 16 | 204 | 6.4 | 11.3 | 0.00 | 0.00 | 0.00 | 34 | |
| 20260502222125 | 17 | 216 | 11.3 | 17.7 | 0.00 | 0.00 | 0.00 | 33 | |
| 20260502221620 | 17 | 148 | 12.9 | 24.1 | 0.00 | 0.00 | 0.00 | 33 | |
| 20260502221117 | 17 | 173 | 12.9 | 22.5 | 0.00 | 0.00 | 0.00 | 33 | |
| 20260502220614 | 17 | 215 | 20.9 | 24.1 | 0.00 | 0.00 | 0.00 | 33 | |
| 20260502220110 | 17 | 216 | 4.8 | 17.7 | 0.00 | 0.00 | 0.00 | 34 | |
| 20260502215607 | 17 | 192 | 14.5 | 22.5 | 0.00 | 0.00 | 0.00 | 35 | |
| 20260502215104 | 17 | 183 | 9.7 | 27.4 | 0.00 | 0.00 | 0.00 | 34 | |
| 20260502214601 | 17 | 169 | 9.7 | 17.7 | 0.00 | 0.00 | 0.00 | 33 | |
| 20260502214058 | 17 | 209 | 17.7 | 29.0 | 0.00 | 0.00 | 0.00 | 35 | |
| 20260502213555 | 16 | 191 | 8.0 | 14.5 | 0.00 | 0.00 | 0.00 | 34 | |
| 20260502213053 | 17 | 211 | 11.3 | 20.9 | 0.00 | 0.00 | 0.00 | 33 | |
| 20260502212552 | 16 | 224 | 6.4 | 22.5 | 0.00 | 0.00 | 0.00 | 33 | |
| 20260502212049 | 17 | 176 | 9.7 | 17.7 | 0.00 | 0.00 | 0.00 | 32 | |
| 20260502211544 | 17 | 211 | 16.1 | 27.4 | 0.00 | 0.00 | 0.00 | 34 | |
| 20260502211042 | 17 | 202 | 9.7 | 12.9 | 0.00 | 0.00 | 0.00 | 36 | |
| 20260502210538 | 16 | 194 | 9.7 | 14.5 | 0.00 | 0.00 | 0.00 | 35 | |
| 20260502210036 | 16 | 185 | 14.5 | 16.1 | 0.00 | 0.00 | 0.00 | 33 | |
| 20260502205532 | 16 | 203 | 6.4 | 8.0 | 0.00 | 0.00 | 0.00 | 35 | |
| 20260502205029 | 16 | 222 | 11.3 | 22.5 | 0.00 | 0.00 | 0.00 | 34 | |
| 20260502204526 | 16 | 233 | 12.9 | 14.5 | 0.00 | 0.00 | 0.00 | 36 | |
| 20260502204024 | 15 | 186 | 6.4 | 14.5 | 0.00 | 0.00 | 0.00 | 35 | |
| 20260502203521 | 16 | 241 | 8.0 | 11.3 | 0.00 | 0.00 | 0.00 | 35 | |
| 20260502203018 | 17 | 202 | 4.8 | 16.1 | 0.00 | 0.00 | 0.00 | 33 | |
| 20260502202514 | 16 | 209 | 17.7 | 22.5 | 0.00 | 0.00 | 0.00 | 34 | |
| 20260502202013 | 16 | 171 | 16.1 | 27.4 | 0.00 | 0.00 | 0.00 | 35 | |
| 20260502201508 | 16 | 216 | 4.8 | 12.9 | 0.00 | 0.00 | 0.00 | 33 | |
| 20260502201004 | 16 | 233 | 11.3 | 14.5 | 0.00 | 0.00 | 0.00 | 34 | |
| 20260502200500 | 16 | 200 | 9.7 | 12.9 | 0.00 | 0.00 | 0.00 | 34 | |
| 20260502195958 | 16 | 224 | 16.1 | 25.7 | 0.00 | 0.00 | 0.00 | 32 | |
| 20260502195456 | 15 | 200 | 9.7 | 16.1 | 0.00 | 0.00 | 0.00 | 33 | |
| 20260502194951 | 15 | 230 | 9.7 | 20.9 | 0.00 | 0.00 | 0.00 | 31 | |
| 20260502194449 | 15 | 165 | 11.3 | 16.1 | 0.00 | 0.00 | 0.00 | 32 | |
| 20260502193944 | 15 | 229 | 8.0 | 12.9 | 0.00 | 0.00 | 0.00 | 32 | |
| 20260502193442 | 15 | 273 | 16.1 | 22.5 | 0.00 | 0.00 | 0.00 | 31 | |
| 20260502192937 | 15 | 135 | 12.9 | 24.1 | 0.00 | 0.00 | 0.00 | 31 | |
| 20260502192434 | 15 | 218 | 8.0 | 9.7 | 0.00 | 0.00 | 0.00 | 30 | |
| 20260502191931 | 15 | 199 | 12.9 | 22.5 | 0.00 | 0.00 | 0.00 | 30 | |
| 20260502191429 | 15 | 215 | 9.7 | 11.3 | 0.00 | 0.00 | 0.00 | 31 | |
| 20260502190927 | 15 | 202 | 9.7 | 14.5 | 0.00 | 0.00 | 0.00 | 30 | |
| 20260502190424 | 15 | 237 | 11.3 | 16.1 | 0.00 | 0.00 | 0.00 | 29 | |
| 20260502185920 | 15 | 232 | 8.0 | 12.9 | 0.00 | 0.00 | 0.00 | 31 | |
| 20260502185415 | 15 | 102 | 14.5 | 25.7 | 0.00 | 0.00 | 0.00 | 31 | |
| 20260502184912 | 15 | 158 | 8.0 | 17.7 | 0.00 | 0.00 | 0.00 | 29 | |
| 20260502184251 | 13 | 157 | 17.7 | 24.1 | 0.00 | 0.00 | 0.00 | 32 | |
| 20260502183748 | 13 | 157 | 17.7 | 24.1 | 0.00 | 0.00 | 0.00 | 32 | |
| 20260502183244 | 13 | 157 | 17.7 | 24.1 | 0.00 | 0.00 | 0.00 | 32 | |
| 20260502182739 | 15 | 203 | 16.1 | 17.7 | 0.00 | 0.00 | 0.00 | 31 | |
| 20260502182235 | 15 | 235 | 14.5 | 17.7 | 0.00 | 0.00 | 0.00 | 33 | |
| 20260502181732 | 14 | 168 | 9.7 | 14.5 | 0.00 | 0.00 | 0.00 | 33 | |
| 20260502181232 | 14 | 213 | 9.7 | 14.5 | 0.00 | 0.00 | 0.00 | 33 | |
| 20260502180728 | 13 | 163 | 11.3 | 22.5 | 0.00 | 0.00 | 0.00 | 32 | |
| 20260502180226 | 14 | 233 | 14.5 | 17.7 | 0.00 | 0.00 | 0.00 | 33 | |
| 20260502170150 | 13 | 199 | 19.3 | 29.0 | 0.00 | 0.00 | 0.00 | 33 | |
| 20260502164136 | 12 | 175 | 11.3 | 14.5 | 0.00 | 0.00 | 0.00 | 35 | |
| 20260502163632 | 13 | 206 | 6.4 | 14.5 | 0.00 | 0.00 | 0.00 | 36 | |
| 20260502163129 | 12 | 216 | 9.7 | 16.1 | 0.00 | 0.00 | 0.00 | 34 | |
| 20260502162626 | 12 | 200 | 8.0 | 12.9 | 0.00 | 0.00 | 0.00 | 33 | |
| 20260502162123 | 12 | 191 | 19.3 | 25.7 | 0.00 | 0.00 | 0.00 | 33 | |
| 20260502161620 | 13 | 215 | 16.1 | 22.5 | 0.00 | 0.00 | 0.00 | 34 | |
| 20260502161117 | 12 | 206 | 8.0 | 16.1 | 0.00 | 0.00 | 0.00 | 35 | |
| 20260502160615 | 12 | 198 | 12.9 | 20.9 | 0.00 | 0.00 | 0.00 | 35 | |
| 20260502160114 | 12 | 214 | 17.7 | 20.9 | 0.00 | 0.00 | 0.00 | 35 | |
| 20260502152028 | 12 | 212 | 12.9 | 24.1 | 0.00 | 0.00 | 0.00 | 35 | |
| 20260502151525 | 11 | 205 | 12.9 | 20.9 | 0.00 | 0.00 | 0.00 | 37 | |
| 20260502151022 | 11 | 201 | 8.0 | 14.5 | 0.00 | 0.00 | 0.00 | 37 | |
| 20260502150520 | 11 | 249 | 14.5 | 20.9 | 0.00 | 0.00 | 0.00 | 37 | |
| 20260502130404 | 6 | 145 | 6.4 | 9.7 | 0.00 | 0.00 | 0.00 | 52 | |
| 20260502123347 | 5 | 173 | 9.7 | 14.5 | 0.00 | 0.00 | 0.00 | 53 | |
| 20260502122844 | 5 | 186 | 8.0 | 11.3 | 0.00 | 0.00 | 0.00 | 53 | |
| 20260502122339 | 5 | 197 | 6.4 | 11.3 | 0.00 | 0.00 | 0.00 | 53 | |
| 20260502121839 | 5 | 182 | 8.0 | 12.9 | 0.00 | 0.00 | 0.00 | 53 | |
| 20260502121335 | 4 | 192 | 8.0 | 14.5 | 0.00 | 0.00 | 0.00 | 54 | |
| 20260502120833 | 4 | 190 | 9.7 | 14.5 | 0.00 | 0.00 | 0.00 | 54 | |
| 20260502120329 | 4 | 172 | 12.9 | 14.5 | 0.00 | 0.00 | 0.00 | 55 | |
| 20260502115826 | 4 | 196 | 6.4 | 14.5 | 0.00 | 0.00 | 0.00 | 55 | |
| 20260502115323 | 3 | 179 | 8.0 | 11.3 | 0.00 | 0.00 | 0.00 | 56 | |
| 20260502114820 | 3 | 169 | 8.0 | 11.3 | 0.00 | 0.00 | 0.00 | 57 | |
| 20260502114317 | 3 | 195 | 8.0 | 9.7 | 0.00 | 0.00 | 0.00 | 57 | |
| 20260502113814 | 3 | 180 | 4.8 | 12.9 | 0.00 | 0.00 | 0.00 | 59 | |
| 20260502113311 | 3 | 171 | 11.3 | 14.5 | 0.00 | 0.00 | 0.00 | 61 | |
| 20260502112809 | 3 | 184 | 11.3 | 14.5 | 0.00 | 0.00 | 0.00 | 63 | |
| 20260502112306 | 3 | 188 | 8.0 | 9.7 | 0.00 | 0.00 | 0.00 | 64 | |
| 20260502111803 | 3 | 167 | 6.4 | 12.9 | 0.00 | 0.00 | 0.00 | 64 | |
| 20260502111301 | 2 | 186 | 6.4 | 9.7 | 0.00 | 0.00 | 0.00 | 63 | |
| 20260502110758 | 2 | 189 | 4.8 | 9.7 | 0.00 | 0.00 | 0.00 | 64 | |
| 20260502110256 | 2 | 161 | 4.8 | 11.3 | 0.00 | 0.00 | 0.00 | 64 | |
| 20260502105754 | 2 | 178 | 8.0 | 12.9 | 0.00 | 0.00 | 0.00 | 64 | |
| 20260502105250 | 2 | 191 | 4.8 | 9.7 | 0.00 | 0.00 | 0.00 | 64 | |
| 20260502104748 | 2 | 192 | 6.4 | 11.3 | 0.00 | 0.00 | 0.00 | 64 | |
| 20260502104245 | 2 | 187 | 6.4 | 9.7 | 0.00 | 0.00 | 0.00 | 64 | |
| 20260502103742 | 3 | 169 | 6.4 | 12.9 | 0.00 | 0.00 | 0.00 | 65 | |
| 20260502103240 | 3 | 195 | 12.9 | 14.5 | 0.00 | 0.00 | 0.00 | 66 | |
| 20260502102738 | 3 | 195 | 9.7 | 12.9 | 0.00 | 0.00 | 0.00 | 66 | |
| 20260502102233 | 2 | 185 | 9.7 | 12.9 | 0.00 | 0.00 | 0.00 | 66 | |
| 20260502101732 | 2 | 195 | 8.0 | 11.3 | 0.00 | 0.00 | 0.00 | 66 | |
| 20260502101230 | 2 | 198 | 8.0 | 11.3 | 0.00 | 0.00 | 0.00 | 66 | |
| 20260502100727 | 2 | 190 | 11.3 | 12.9 | 0.00 | 0.00 | 0.00 | 66 | |
| 20260502100226 | 2 | 179 | 8.0 | 9.7 | 0.00 | 0.00 | 0.00 | 64 | |
| 20260502091200 | 3 | 194 | 8.0 | 11.3 | 0.00 | 0.00 | 0.00 | 63 | |
| 20260502090657 | 3 | 212 | 8.0 | 11.3 | 0.00 | 0.00 | 0.00 | 63 | |
| 20260502090154 | 3 | 199 | 9.7 | 16.1 | 0.00 | 0.00 | 0.00 | 62 | |
| 20260502071055 | 3 | 192 | 4.8 | 4.8 | 0.00 | 0.00 | 0.00 | 60 | |
| 20260502070553 | 3 | 191 | 3.2 | 8.0 | 0.00 | 0.00 | 0.00 | 59 | |
| 20260502070051 | 3 | 194 | 1.6 | 8.0 | 0.00 | 0.00 | 0.00 | 59 | |
| 20260502065549 | 3 | 174 | 3.2 | 4.8 | 0.00 | 0.00 | 0.00 | 59 | |
| 20260502065046 | 3 | 184 | 3.2 | 9.7 | 0.00 | 0.00 | 0.00 | 59 | |
| 20260502064545 | 3 | 192 | 1.6 | 4.8 | 0.00 | 0.00 | 0.00 | 59 | |
| 20260502064041 | 3 | 189 | 1.6 | 4.8 | 0.00 | 0.00 | 0.00 | 58 | |
| 20260502063539 | 3 | 204 | 1.6 | 4.8 | 0.00 | 0.00 | 0.00 | 58 | |
| 20260502063037 | 3 | 196 | 1.6 | 3.2 | 0.00 | 0.00 | 0.00 | 57 | |
| 20260502062534 | 3 | 185 | 3.2 | 4.8 | 0.00 | 0.00 | 0.00 | 57 | |
| 20260502062032 | 3 | 198 | 1.6 | 3.2 | 0.00 | 0.00 | 0.00 | 56 | |
| 20260502061530 | 3 | 194 | 3.2 | 4.8 | 0.00 | 0.00 | 0.00 | 56 | |
| 20260502061026 | 3 | 189 | 1.6 | 3.2 | 0.00 | 0.00 | 0.00 | 55 | |
| 20260502060522 | 3 | 195 | 1.6 | 3.2 | 0.00 | 0.00 | 0.00 | 55 | |
| 20260502060019 | 3 | 183 | 3.2 | 3.2 | 0.00 | 0.00 | 0.00 | 55 | |
| 20260502055516 | 3 | 196 | 1.6 | 1.6 | 0.00 | 0.00 | 0.00 | 55 | |
| 20260502055015 | 3 | 191 | 1.6 | 3.2 | 0.00 | 0.00 | 0.00 | 55 | |
| 20260502054513 | 3 | 192 | 1.6 | 3.2 | 0.00 | 0.00 | 0.00 | 55 | |
| 20260502054010 | 3 | 192 | 1.6 | 3.2 | 0.00 | 0.00 | 0.00 | 55 | |
| 20260502053507 | 3 | 193 | 1.6 | 1.6 | 0.00 | 0.00 | 0.00 | 55 | |
| 20260502053005 | 3 | 197 | 0.0 | 1.6 | 0.00 | 0.00 | 0.00 | 55 | |
| 20260502052503 | 3 | 192 | 1.6 | 3.2 | 0.00 | 0.00 | 0.00 | 55 | |
| 20260502052001 | 3 | 191 | 1.6 | 1.6 | 0.00 | 0.00 | 0.00 | 54 | |
| 20260502051458 | 3 | 204 | 1.6 | 3.2 | 0.00 | 0.00 | 0.00 | 53 | |
| 20260502050955 | 4 | 191 | 3.2 | 4.8 | 0.00 | 0.00 | 0.00 | 53 | |
| 20260502050452 | 3 | 192 | 1.6 | 3.2 | 0.00 | 0.00 | 0.00 | 54 | |
| 20260502045949 | 3 | 194 | 1.6 | 1.6 | 0.00 | 0.00 | 0.00 | 55 | |
| 20260502045446 | 3 | 193 | 3.2 | 4.8 | 0.00 | 0.00 | 0.00 | 56 | |
| 20260502044943 | 3 | 190 | 0.0 | 1.6 | 0.00 | 0.00 | 0.00 | 55 | |
| 20260502044438 | 3 | 191 | 0.0 | 1.6 | 0.00 | 0.00 | 0.00 | 53 | |
| 20260502043936 | 4 | 182 | 0.0 | 3.2 | 0.00 | 0.00 | 0.00 | 52 | |
| 20260502043433 | 4 | 196 | 0.0 | 1.6 | 0.00 | 0.00 | 0.00 | 53 | |
| 20260502042932 | 4 | 199 | 1.6 | 3.2 | 0.00 | 0.00 | 0.00 | 52 | |
| 20260502042430 | 5 | 190 | 1.6 | 3.2 | 0.00 | 0.00 | 0.00 | 51 | |
| 20260502041927 | 4 | 189 | 1.6 | 3.2 | 0.00 | 0.00 | 0.00 | 51 | |
| 20260502041425 | 5 | 196 | 1.6 | 3.2 | 0.00 | 0.00 | 0.00 | 53 | |
| 20260502040922 | 4 | 197 | 1.6 | 3.2 | 0.00 | 0.00 | 0.00 | 55 | |
| 20260502040418 | 4 | 196 | 0.0 | 0.0 | 0.00 | 0.00 | 0.00 | 55 | |
| 20260502035914 | 4 | 192 | 0.0 | 1.6 | 0.00 | 0.00 | 0.00 | 55 | |
| 20260502035411 | 4 | 196 | 0.0 | 0.0 | 0.00 | 0.00 | 0.00 | 54 | |
| 20260502034909 | 4 | 192 | 0.0 | 1.6 | 0.00 | 0.00 | 0.00 | 54 | |
| 20260502034407 | 4 | 192 | 0.0 | 1.6 | 0.00 | 0.00 | 0.00 | 54 | |
| 20260502033905 | 4 | 192 | 0.0 | 1.6 | 0.00 | 0.00 | 0.00 | 55 | |
| 20260502033403 | 4 | 193 | 1.6 | 3.2 | 0.00 | 0.00 | 0.00 | 55 | |
| 20260502032859 | 3 | 193 | 1.6 | 3.2 | 0.00 | 0.00 | 0.00 | 55 | |
| 20260502032355 | 4 | 190 | 1.6 | 1.6 | 0.00 | 0.00 | 0.00 | 55 | |
| 20260502031853 | 5 | 190 | 1.6 | 1.6 | 0.00 | 0.00 | 0.00 | 55 | |
| 20260502031351 | 5 | 196 | 1.6 | 1.6 | 0.00 | 0.00 | 0.00 | 55 | |
| 20260502030849 | 5 | 197 | 1.6 | 1.6 | 0.00 | 0.00 | 0.00 | 54 | |
| 20260502030347 | 5 | 198 | 0.0 | 0.0 | 0.00 | 0.00 | 0.00 | 53 | |
| 20260502025844 | 6 | 198 | 0.0 | 0.0 | 0.00 | 0.00 | 0.00 | 51 | |
| 20260502025341 | 6 | 198 | 1.6 | 1.6 | 0.00 | 0.00 | 0.00 | 51 | |
| 20260502024839 | 6 | 197 | 1.6 | 1.6 | 0.00 | 0.00 | 0.00 | 51 | |
| 20260502024337 | 6 | 199 | 1.6 | 1.6 | 0.00 | 0.00 | 0.00 | 52 | |
| 20260502023834 | 6 | 199 | 1.6 | 1.6 | 0.00 | 0.00 | 0.00 | 53 | |
| 20260502023332 | 6 | 198 | 0.0 | 1.6 | 0.00 | 0.00 | 0.00 | 53 | |
| 20260502022830 | 6 | 198 | 0.0 | 0.0 | 0.00 | 0.00 | 0.00 | 55 | |
| 20260502022326 | 6 | 198 | 0.0 | 0.0 | 0.00 | 0.00 | 0.00 | 52 | |
| 20260502021823 | 6 | 198 | 0.0 | 1.6 | 0.00 | 0.00 | 0.00 | 52 | |
| 20260502021320 | 6 | 197 | 1.6 | 1.6 | 0.00 | 0.00 | 0.00 | 52 | |
| 20260502020817 | 6 | 200 | 0.0 | 0.0 | 0.00 | 0.00 | 0.00 | 50 | |
| 20260502020315 | 6 | 197 | 1.6 | 1.6 | 0.00 | 0.00 | 0.00 | 50 | |
| 20260502015812 | 7 | 194 | 1.6 | 1.6 | 0.00 | 0.00 | 0.00 | 50 | |
| 20260502015308 | 7 | 194 | 3.2 | 3.2 | 0.00 | 0.00 | 0.00 | 49 | |
| 20260502014806 | 7 | 202 | 1.6 | 1.6 | 0.00 | 0.00 | 0.00 | 48 | |
| 20260502014303 | 7 | 202 | 0.0 | 0.0 | 0.00 | 0.00 | 0.00 | 48 | |
| 20260502013759 | 7 | 202 | 0.0 | 0.0 | 0.00 | 0.00 | 0.00 | 48 | |
| 20260502013254 | 7 | 202 | 0.0 | 0.0 | 0.00 | 0.00 | 0.00 | 48 | |
| 20260502012751 | 7 | 202 | 0.0 | 0.0 | 0.00 | 0.00 | 0.00 | 45 | |
| 20260502012249 | 7 | 202 | 0.0 | 0.0 | 0.00 | 0.00 | 0.00 | 46 | |
| 20260502011746 | 7 | 202 | 0.0 | 0.0 | 0.00 | 0.00 | 0.00 | 46 | |
| 20260502011242 | 8 | 202 | 0.0 | 0.0 | 0.00 | 0.00 | 0.00 | 44 | |
| 20260502010740 | 8 | 202 | 0.0 | 0.0 | 0.00 | 0.00 | 0.00 | 43 | |
| 20260502010236 | 8 | 213 | 1.6 | 1.6 | 0.00 | 0.00 | 0.00 | 42 | |
| 20260502005733 | 8 | 202 | 0.0 | 0.0 | 0.00 | 0.00 | 0.00 | 41 | |
| 20260502005231 | 8 | 202 | 0.0 | 1.6 | 0.00 | 0.00 | 0.00 | 40 | |
| 20260502004727 | 8 | 205 | 1.6 | 1.6 | 0.00 | 0.00 | 0.00 | 39 | |
| 20260502004224 | 9 | 208 | 0.0 | 1.6 | 0.00 | 0.00 | 0.00 | 39 | |
| 20260502003722 | 9 | 206 | 1.6 | 3.2 | 0.00 | 0.00 | 0.00 | 39 | |
| 20260502003219 | 9 | 204 | 0.0 | 1.6 | 0.00 | 0.00 | 0.00 | 39 | |
| 20260502002714 | 9 | 203 | 0.0 | 1.6 | 0.00 | 0.00 | 0.00 | 40 | |
| 20260502002213 | 10 | 202 | 0.0 | 1.6 | 0.00 | 0.00 | 0.00 | 38 | |
| 20260502001709 | 10 | 202 | 0.0 | 1.6 | 0.00 | 0.00 | 0.00 | 39 | |
| 20260502001208 | 10 | 217 | 0.0 | 1.6 | 0.00 | 0.00 | 0.00 | 37 | |
| 20260502000704 | 10 | 209 | 0.0 | 3.2 | 0.00 | 0.00 | 0.00 | 37 | |
| 20260502000203 | 9 | 215 | 1.6 | 1.6 | 0.00 | 0.00 | 0.00 | 37 | |
| 20260501235658 | 10 | 212 | 1.6 | 3.2 | 0.00 | 0.00 | 0.00 | 35 | |
| 20260501235154 | 10 | 207 | 1.6 | 3.2 | 0.00 | 0.00 | 0.00 | 34 | |
| 20260501234650 | 10 | 211 | 1.6 | 3.2 | 0.00 | 0.00 | 0.00 | 33 | |
| 20260501234147 | 10 | 202 | 4.8 | 8.0 | 0.00 | 0.00 | 0.00 | 33 | |
| 20260501233645 | 10 | 202 | 4.8 | 4.8 | 0.00 | 0.00 | 0.00 | 36 | |
| 20260501233142 | 10 | 226 | 1.6 | 3.2 | 0.00 | 0.00 | 0.00 | 34 | |
| 20260501232638 | 11 | 214 | 1.6 | 4.8 | 0.00 | 0.00 | 0.00 | 31 | |
| 20260501232136 | 11 | 201 | 1.6 | 8.0 | 0.00 | 0.00 | 0.00 | 30 | |
| 20260501231633 | 11 | 209 | 3.2 | 4.8 | 0.00 | 0.00 | 0.00 | 31 | |
| 20260501231131 | 11 | 202 | 1.6 | 3.2 | 0.00 | 0.00 | 0.00 | 35 | |
| 20260501230630 | 11 | 212 | 1.6 | 3.2 | 0.00 | 0.00 | 0.00 | 37 | |
| 20260501230127 | 11 | 198 | 3.2 | 4.8 | 0.00 | 0.00 | 0.00 | 35 | |
| 20260501225625 | 11 | 203 | 1.6 | 4.8 | 0.00 | 0.00 | 0.00 | 33 | |
| 20260501225121 | 11 | 202 | 1.6 | 4.8 | 0.00 | 0.00 | 0.00 | 34 | |
| 20260501224618 | 11 | 228 | 4.8 | 4.8 | 0.00 | 0.00 | 0.00 | 34 | |
| 20260501224115 | 11 | 211 | 3.2 | 3.2 | 0.00 | 0.00 | 0.00 | 35 |